DMSP 5D-2 F13 DEB, 40412

Orbit data source: Space-Track

DMSP 5D-2 F13 DEB, 40412 is space debris in SSO originally from a launch on Fri, 24 Mar 1995 UTC launched from the Air Force Western Test Range (AFWTR). Debris objects in space refer to the collection of defunct objects orbiting the Earth. Examples of debris include non-operational satellites, rocket bodies, and fragments generated from explosions, collisions, or faulty payload assembly.

Loading next visibility...
Identifier
40412, 1995-015Z
Orbit
SSO
Country
Flag of USUS
Related business
Manufacturer
Unknown
Mission
Spacecraft
Bus & Motor
Unknown
Mass
Unknown
Launch date (UTC)
1995-03-24 (31 years ago)
Launch vehicle
Unknown
Launch site
Air Force Western Test Range (AFWTR)
Object type
Payload
Rocket body
Debris
Shape & HBR
Unknown shape, 0.1 m
Radar Cross Section
Medium (>0.1 m² and <1 m²)

Expand to show TLE details & history
Last TLE update: 2 days ago

TLE from 2 days ago
0 DMSP 5D-2 F13 DEB
1 40412U 95015Z   26171.00052809  .00000154  00000-0  90892-4 0  9994
2 40412  98.7039 185.5574 0018893   5.6395 354.4992 14.21002861586337
Epoch: 2026-06-20T00:00Z
TLE epoch observation values (Epoch: 2026-06-20T00:00:45.626Z)
Latitude
0.00001°
Longitude
-82.85414°
Altitude
811.336 km
Speed
7.455 km/s
True Right ascension
12h 22m 13s
True Declination
0° 00' 00"
Sunlit
Object was in daylight at epoch
Visualization orbit readout
Latitude
Unknown
Longitude
Unknown
Altitude
Unknown
Speed
Unknown
Apparent Right ascension
Unknown
Apparent Declination
Unknown
Sunlit
N/A
Visualization observer readout
Local Sidereal Time
21:38:43
Azimuth
Unknown
Elevation
Unknown
Doppler factor
Unknown
Orbital elements
Apogee altitude
832.718 km
Perigee altitude
805.522 km
Semi-major axis
7,197.257 km
Eccentricity
0.00189
Inclination
98.7039°
RAAN
185.5574°
Arg. of periapsis
5.6395°
True anomaly
354.4784°
Mean anomaly
354.4992°
Eccentric anomaly
354.4888°
Mean motion
3.55462 °/min
Orbital period
101.28 mins
BSTAR
0.000090892

Documentation

Showing up to 5 results
|